Weather History for Saipan, MP

Change the Weather History Date:

Tuesday, October 8, 2013

  Actual Average Record
Temperature  
Mean Temperature 81 °F -  
Max Temperature 87 °F 84 °F 89 °F (1997)
Min Temperature 75 °F 76 °F 75 °F (1997)
Cooling Degree Days 16    
Growing Degree Days 31 (Base 50)    
Moisture  
Dew Point 76 °F    
Average Humidity 87    
Maximum Humidity 94    
Minimum Humidity 74    
Precipitation  
Precipitation 0.07 in - - ()
Sea Level Pressure  
Sea Level Pressure 29.77 in    
Wind  
Wind Speed 8 mph (NE)    
Max Wind Speed 17 mph    
Max Gust Speed 24 mph    
Visibility 10 miles    
Events Rain , Thunderstorm    
Averages and records for this station are not official NWS values.
T = Trace of Precipitation, MM = Missing Value Source: NWS Daily Summary

Daily Weather History Graph

Daily Weather History Graph

Search for Another Location

Airport:

Trip Planner

Search our weather history database for the weather conditions in past years. The results will help you decide how hot, cold, wet, or windy it might be!

Date:

Astronomy

Oct. 08, 2013 Rise Set
Actual Time 6:07 AM ChST 6:01 PM ChST
Civil Twilight 5:46 AM ChST 6:23 PM ChST
Nautical Twilight 5:21 AM ChST 6:47 PM ChST
Astronomical Twilight 4:56 AM ChST 7:12 PM ChST
Moon 8:49 AM ChST (10/8) 8:35 PM ChST (10/8)
Length of Visible Light 12h 36m
Length of Day
11h 54m
Waxing Crescent, 11% of the Moon is Illuminated
Oct 8
Waxing Crescent
Oct 12
First Quarter
Oct 19
Full
Oct 27
Last Quarter
Nov 3
New

Hourly Weather History & Observations

Time (ChST) Temp. Heat Index Dew Point Humidity Pressure Visibility Wind Dir Wind Speed Gust Speed Precip Events Conditions
12:54 AM 79.0 °F - 75.9 °F 90% 29.78 in 10.0 mi East 6.9 mph - 0.05 in   Mostly Cloudy
1:25 AM 78.8 °F - 75.2 °F 89% 29.73 in 10.0 mi NE 16.1 mph 24.2 mph N/A Thunderstorm Thunderstorm
1:39 AM 77.0 °F - 73.4 °F 89% 29.71 in 8.0 mi NNE 12.7 mph 16.1 mph 0.00 in Rain , Thunderstorm Light Thunderstorms and Rain
1:54 AM 75.9 °F - 73.0 °F 91% 29.77 in 10.0 mi NE 6.9 mph - 0.01 in Rain Light Rain
2:54 AM 77.0 °F - 75.0 °F 94% 29.76 in 10.0 mi ENE 5.8 mph - 0.00 in   Clear
3:54 AM 78.1 °F - 75.0 °F 90% 29.75 in 10.0 mi NNE 3.5 mph - N/A   Partly Cloudy
4:54 AM 79.0 °F - 75.0 °F 88% 29.77 in 10.0 mi NE 5.8 mph - N/A   Partly Cloudy
5:54 AM 78.1 °F - 75.0 °F 90% 29.78 in 10.0 mi Calm Calm - N/A   Clear
6:54 AM 79.0 °F - 75.9 °F 90% 29.80 in 10.0 mi North 4.6 mph - 0.00 in   Mostly Cloudy
7:27 AM 78.8 °F - 77.0 °F 94% 29.73 in 7.0 mi East 5.8 mph - 0.00 in Rain Light Rain
7:54 AM 80.1 °F 85.8 °F 77.0 °F 90% 29.81 in 10.0 mi NE 5.8 mph - 0.00 in   Mostly Cloudy
8:01 AM 80.6 °F 86.2 °F 75.2 °F 84% 29.75 in 10.0 mi NE 5.8 mph - N/A   Mostly Cloudy
8:15 AM 80.6 °F 86.2 °F 75.2 °F 84% 29.75 in 10.0 mi NNE 9.2 mph - N/A   Mostly Cloudy
8:38 AM 80.6 °F 87.1 °F 77.0 °F 89% 29.76 in 10.0 mi NE 5.8 mph - 0.00 in   Scattered Clouds
8:54 AM 81.0 °F 88.6 °F 78.1 °F 91% 29.82 in 10.0 mi NNE 8.1 mph - 0.00 in   Scattered Clouds
9:54 AM 82.0 °F 90.2 °F 77.0 °F 85% 29.83 in 10.0 mi NE 17.3 mph 20.7 mph N/A   Scattered Clouds
10:54 AM 84.0 °F 93.7 °F 77.0 °F 79% 29.81 in 10.0 mi NE 9.2 mph - N/A   Mostly Cloudy
11:54 AM 84.9 °F 95.3 °F 77.0 °F 77% 29.78 in 10.0 mi NE 8.1 mph - N/A   Scattered Clouds
12:54 PM 84.9 °F 95.3 °F 77.0 °F 77% 29.75 in 10.0 mi NE 8.1 mph - N/A   Mostly Cloudy
1:54 PM 87.1 °F 99.8 °F 78.1 °F 74% 29.73 in 10.0 mi ENE 8.1 mph - N/A   Clear
2:54 PM 86.0 °F 98.3 °F 78.1 °F 77% 29.72 in 10.0 mi NNE 10.4 mph - N/A   Clear
3:54 PM 82.9 °F 92.8 °F 78.1 °F 85% 29.74 in 10.0 mi NE 9.2 mph - 0.00 in   Mostly Cloudy
4:54 PM 82.0 °F 90.2 °F 77.0 °F 85% 29.75 in 6.0 mi NE 9.2 mph - 0.00 in Rain Light Rain
5:54 PM 81.0 °F 87.9 °F 77.0 °F 88% 29.77 in 10.0 mi East 4.6 mph - 0.00 in   Clear
6:54 PM 81.0 °F 87.9 °F 77.0 °F 88% 29.78 in 10.0 mi East 5.8 mph - N/A   Partly Cloudy
7:54 PM 79.0 °F - 75.0 °F 88% 29.80 in 8.0 mi East 9.2 mph - 0.00 in Rain Rain
8:54 PM 79.0 °F - 77.0 °F 94% 29.81 in 10.0 mi East 5.8 mph - 0.01 in   Partly Cloudy
9:54 PM 80.1 °F 85.8 °F 77.0 °F 90% 29.81 in 10.0 mi East 9.2 mph - N/A   Partly Cloudy
10:54 PM 80.1 °F 85.8 °F 77.0 °F 90% 29.81 in 10.0 mi East 9.2 mph - N/A   Partly Cloudy
11:54 PM 82.0 °F 90.2 °F 77.0 °F 85% 29.80 in 10.0 mi East 11.5 mph - N/A   Scattered Clouds